Regional Weather Roundup
Issued by NWS Jackson, KY

Home | Current Version | Previous Version | Text Only | Print | Product List | Glossary On
Versions: 1 2 3 4 5 6 7 8 9 10 11 12 13 14 15 16 17 18 19 20 21 22 23 24 25 26 27
000
ASUS43 KJKL 221010
RWRJKL

EAST KENTUCKY HOURLY WEATHER ROUNDUP
NATIONAL WEATHER SERVICE JACKSON KY
500 AM EST SUN JAN 22 2017

NOTE: "FAIR" INDICATES FEW OR NO CLOUDS BELOW 12,000 FEET WITH
NO SIGNIFICANT WEATHER AND/OR OBSTRUCTIONS TO VISIBILITY.

* THESE REPORTS ARE NOT UNDER NWS QUALITY CONTROL AND MAY NOT
  REPORT WEATHER SUCH AS PRECIPITATION AND FOG.

KYZ079-080-083-085-087-088-110-112-115-119-120-221100
...EASTERN KENTUCKY...

CITY           SKY/WX    TMP DP  RH WIND       PRES   REMARKS
JACKSON        MOCLDY    51  48  89 VRB5      29.57R
LONDON         FOG       44  42  93 CALM      29.56S VSB 3/4
SOMERSET*      PTCLDY    46  46 100 CALM      29.58R
MONTICELLO*    CLOUDY    46  45  96 CALM      29.57S
WILLIAMSBURG*  MOSUNNY   46  46 100 SE3       29.57S
MIDDLESBORO*   CLOUDY    43  43 100 CALM      29.61R FOG
HARLAN APT*    CLOUDY    45  45 100 NE3       29.61R VSB 1/4
PIKE CO APT*   FOG       46  46 100 S5        29.59R VSB 1/4
MOREHEAD APT*  MOSUNNY   54  48  82 E8        29.57F
ASHLAND*       CLOUDY    45  43  93 CALM      29.55F VSB 1/2
$$

KYZ035-036-041-042-044-050-067-078-099-221100
...CENTRAL KENTUCKY...

CITY           SKY/WX    TMP DP  RH WIND       PRES   REMARKS
MT STERLING*   PTCLDY    46  46 100 E3        29.57R FOG
FLEMING/MASON* CLEAR     48  48  99 E5        29.58S
DANVILLE*      FOG       43  43 100 CALM      29.58R VSB 1/2
LEXINGTON      PTCLDY    48  45  89 SE5       29.56R
FRANKFORT      PTCLDY    46  43  89 CALM      29.54F
LOUISVILLE     MOCLDY    48  45  89 CALM      29.53S
LEBANON*         N/A     48  46  93 SE7       29.56R
GLASGOW*       CLOUDY    52  48  86 E5        29.52S
BOWLING GREEN  CLOUDY    52  48  86 NE3       29.52S
$$

KYZ091>093-OHZ055-061-077-WVZ005-015-034-035-042-221100
...SOUTHERN OHIO/WEST VIRGINIA...

CITY           SKY/WX    TMP DP  RH WIND       PRES   REMARKS
COVINGTON      PTCLDY    48  47  96 E6        29.56F
COLUMBUS       PTCLDY    48  45  89 E3        29.58F
DAYTON         FOG       46  45  96 SE3       29.60R VSB 1/4
WILMINGTON     CLOUDY    47  47 100 CALM      29.58R
HUNTINGTON     CLOUDY    47  46  97 N6        29.56F FOG
CHARLESTON     MOCLDY    47  46  97 NE3       29.57F FOG
BECKLEY        CLOUDY    48  46  93 SE8       29.61F
BLUEFIELD      FOG       47  47 100 SE3       29.63F VSB 1/4
LOGAN CO APT*    N/A     52  48  87 CALM      29.58S
$$

VAZ002-007-008-TNZ017-027-036-066-071-221100
...SOUTHWEST VIRGINIA/EAST TENNESSEE...

CITY           SKY/WX    TMP DP  RH WIND       PRES   REMARKS
WISE*          PTCLDY    50  50 100 SE5       29.63R
JONESVILLE*    CLOUDY    45  45 100 CALM      29.63R
ABINGDON*      FOG       51  51 100 E5        29.64R VSB 1/2
BRISTOL        CLOUDY    50  48  93 CALM      29.62R
MORRISTOWN*    MOSUNNY   52  52 100 E6        29.58F
SEVIERVILLE*   SUNNY     46  46 100 CALM      29.57F
KNOXVILLE      MOCLDY    51  49  92 CALM      29.57S
LAFOLLETTE*    CLOUDY    45  45 100 CALM      29.61F FOG
OAK RIDGE      MOCLDY    50  47  89 CALM      29.59S
CROSSVILLE     CLOUDY    53  50  89 SE7       29.55F
NASHVILLE      CLOUDY    53  49  86 NE3       29.49F
$$

...KEY TO REMARKS...
VSB - VISIBILITY IN MILES
WCI - WIND CHILL INDEX
HX  - HEAT INDEX

$$




USA.gov is the U.S. government's official web portal to all federal, state and local government web resources and services.